Weather reports worldwide

Advertisment
Pescara, Italy (16230): temperature & dewpoint: 11.07.2019 07:00:00 - 17.07.2019 07:00:00 (CEST)Pescara, Italy (16230): wind speed: 11.07.2019 07:00:00 - 17.07.2019 07:00:00 (CEST)Pescara, Italy (16230): wind direction: 11.07.2019 07:00:00 - 17.07.2019 07:00:00 (CEST)Pescara, Italy (16230): reduced air pressure: 11.07.2019 07:00:00 - 17.07.2019 07:00:00 (CEST)Pescara, Italy (16230): visibility: 11.07.2019 07:00:00 - 17.07.2019 07:00:00 (CEST)Pescara, Italy (16230): precipitation: 11.07.2019 07:00:00 - 17.07.2019 07:00:00 (CEST)
Date & Time tt [°C] td [°C] ff [km/h] ff [kn] dd ppp [hPa] vv [km] rr [mm]
17.07.2019 07:00:00 17,0 12,0 9 5 WSW - 10 -
17.07.2019 06:00:00 16,0 12,0 9 5 WSW - 10 -
17.07.2019 05:00:00 16,2 11,5 9 5 WSW 1014,0 30 0,0
17.07.2019 04:00:00 16,0 12,0 9 5 SW - 10 -
17.07.2019 03:00:00 17,0 12,0 9 5 WSW - 10 -
17.07.2019 02:00:00 17,6 12,4 9 5 SW 1014,3 10 -
17.07.2019 01:00:00 18,0 13,0 11 6 WSW - 10 -
17.07.2019 00:00:00 19,0 13,0 11 6 SW - 10 -
16.07.2019 23:00:00 20,1 13,5 11 6 SW 1013,8 30 0,0
16.07.2019 22:00:00 22,0 14,0 9 5 SW - 10 -
16.07.2019 21:00:00 24,0 14,0 8 4 NW - 10 -
16.07.2019 20:00:00 25,4 14,3 13 7 N 1012,4 30 -
16.07.2019 19:00:00 27,0 11,0 15 8 N - 10 -
16.07.2019 18:00:00 27,0 11,0 15 8 NNW - 10 -
16.07.2019 17:00:00 26,8 13,4 18 10 N 1012,0 30 0,0
16.07.2019 16:00:00 27,0 14,0 21 11 N - 10 -
16.07.2019 15:00:00 26,0 14,0 18 10 NNW - 10 -
16.07.2019 14:00:00 26,4 14,5 18 10 N 1011,7 30 -
16.07.2019 13:00:00 26,0 16,0 21 11 N - 10 -
16.07.2019 12:00:00 26,0 15,0 22 12 N - 10 -
16.07.2019 11:00:00 25,9 15,4 21 11 N 1011,3 - 0,0
16.07.2019 10:00:00 24,0 17,0 13 7 NNW - 10 -
16.07.2019 09:00:00 22,0 16,0 9 5 SW - 10 -
16.07.2019 08:00:00 21,2 16,3 11 6 SW 1010,4 20 -
16.07.2019 07:00:00 20,0 17,0 9 5 SW - 10 -
16.07.2019 06:00:00 19,0 17,0 8 4 SW - 10 -
16.07.2019 05:00:00 19,7 15,9 11 6 SSW 1010,0 10 0,0
16.07.2019 04:00:00 20,0 15,0 8 4 SSW - 10 -
16.07.2019 03:00:00 20,0 16,0 11 6 SSW - 10 -
16.07.2019 02:00:00 19,9 17,6 4 2 WSW 1010,7 30 -
16.07.2019 01:00:00 20,0 18,0 11 6 SSW - 10 -
16.07.2019 00:00:00 21,0 18,0 4 2 - - 10 -
15.07.2019 23:00:00 20,4 18,1 5 3 SSW 1011,1 20 0,0
15.07.2019 22:00:00 21,0 17,0 8 4 SSW - 10 -
15.07.2019 21:00:00 22,0 18,0 2 1 - - 10 -
15.07.2019 20:00:00 22,4 18,7 4 2 N 1010,0 20 -
15.07.2019 19:00:00 - - - - - - - -
15.07.2019 18:00:00 24,0 18,0 5 3 NW - 10 -
15.07.2019 17:00:00 23,2 17,9 5 3 WSW 1009,8 20 0,0
15.07.2019 16:00:00 24,0 18,0 4 2 - - 10 -
15.07.2019 15:00:00 24,0 18,0 8 4 N - 10 -
15.07.2019 14:00:00 24,5 18,0 8 4 NNE 1009,6 15 -
15.07.2019 13:00:00 25,0 17,0 8 4 NNE - 10 -
15.07.2019 12:00:00 25,0 16,0 5 3 SW - 10 -
15.07.2019 11:00:00 24,4 15,2 5 3 SW 1009,1 30 0,0
15.07.2019 10:00:00 23,0 15,0 9 5 SW - 10 -
15.07.2019 09:00:00 21,0 15,0 9 5 SW - 10 -
15.07.2019 08:00:00 20,0 15,5 9 5 SW 1009,4 30 -
15.07.2019 07:00:00 18,0 16,0 9 5 SW - 10 -
15.07.2019 06:00:00 17,0 16,0 9 5 SW - 10 -
15.07.2019 05:00:00 17,4 15,7 8 4 SW 1009,6 10 0,0
15.07.2019 04:00:00 18,0 16,0 4 2 - - 10 -
15.07.2019 03:00:00 17,0 16,0 8 4 SW - 10 -
15.07.2019 02:00:00 18,2 15,8 9 5 SW 1010,5 10 -
15.07.2019 01:00:00 19,0 16,0 8 4 WSW - 10 -
15.07.2019 00:00:00 20,0 17,0 4 2 WSW - 10 -
14.07.2019 23:00:00 20,2 17,0 4 2 SSW 1011,2 30 0,0
14.07.2019 22:00:00 22,0 17,0 2 1 - - 10 -
14.07.2019 21:00:00 24,0 15,0 5 3 ESE - 10 -
14.07.2019 20:00:00 25,2 15,0 2 1 N 1010,8 30 -
14.07.2019 19:00:00 26,0 14,0 8 4 ENE - 10 -
14.07.2019 18:00:00 26,0 15,0 11 6 NNE - 10 -
14.07.2019 17:00:00 26,0 14,7 11 6 NE 1011,6 75 0,0
14.07.2019 16:00:00 27,0 16,0 15 8 NE - 10 -
14.07.2019 15:00:00 26,0 16,0 13 7 NE - 10 -
14.07.2019 14:00:00 26,9 17,8 13 7 NE 1012,6 30 -
14.07.2019 13:00:00 26,0 18,0 13 7 NNE - 10 -
14.07.2019 12:00:00 26,0 17,0 11 6 NE - 10 -
14.07.2019 11:00:00 25,5 16,3 13 7 NNE 1012,8 45 0,0
14.07.2019 10:00:00 24,0 18,0 4 2 - - 10 -
14.07.2019 09:00:00 22,0 18,0 13 7 SW - 10 -
14.07.2019 08:00:00 20,3 17,8 13 7 SSW 1012,1 45 -
14.07.2019 07:00:00 19,0 17,0 11 6 SW - 10 -
14.07.2019 06:00:00 18,0 17,0 8 4 SW - 10 -
14.07.2019 05:00:00 18,3 17,3 8 4 SW 1011,9 10 0,0
14.07.2019 04:00:00 18,0 17,0 9 5 SW - 10 -
14.07.2019 03:00:00 19,0 18,0 9 5 SSW - 10 -
14.07.2019 02:00:00 19,5 18,4 8 4 SW 1012,3 15 -
14.07.2019 01:00:00 20,0 19,0 9 5 SW - 10 -
14.07.2019 00:00:00 20,0 19,0 8 4 SW - 10 -
13.07.2019 23:00:00 20,3 19,1 5 3 SW 1011,6 25 0,0
13.07.2019 22:00:00 21,0 19,0 2 1 - - 10 -
13.07.2019 21:00:00 22,0 19,0 4 2 W - 10 -
13.07.2019 20:00:00 23,9 18,8 4 2 N 1009,8 30 -
13.07.2019 19:00:00 24,0 19,0 4 2 - - 10 -
13.07.2019 18:00:00 23,0 20,0 9 5 SW - 10 -
13.07.2019 17:00:00 21,4 19,5 9 5 SW 1010,3 15 0,0
13.07.2019 16:00:00 21,0 19,0 13 7 W - 10 -
13.07.2019 15:00:00 22,0 20,0 8 4 WNW - 10 -
13.07.2019 14:00:00 21,6 20,2 24 13 N 1011,1 7 -
13.07.2019 13:00:00 24,0 20,0 34 18 NNE - 10 -
13.07.2019 12:00:00 30,0 19,0 9 5 NW - 10 -
13.07.2019 11:00:00 29,1 19,7 9 5 S 1007,6 10 0,0
13.07.2019 10:00:00 27,0 20,0 11 6 ESE - 10 -
13.07.2019 09:00:00 25,0 20,0 4 2 - - 10 -
13.07.2019 08:00:00 22,7 19,2 0 0 N 1009,2 30 -
13.07.2019 07:00:00 20,0 19,0 9 5 S - 10 -
13.07.2019 06:00:00 20,0 18,0 4 2 - - 10 -
13.07.2019 05:00:00 19,3 18,2 2 1 N 1010,0 20 0,0
13.07.2019 04:00:00 20,0 19,0 8 4 ENE - 10 -
13.07.2019 03:00:00 20,0 19,0 13 7 SSW - 10 -
13.07.2019 02:00:00 20,6 19,4 11 6 SW 1011,3 10 -
13.07.2019 01:00:00 21,0 20,0 5 3 WSW - 10 -
13.07.2019 00:00:00 21,0 20,0 5 3 SW - 10 -
12.07.2019 23:00:00 20,8 19,2 4 2 SW 1011,9 20 0,0
12.07.2019 22:00:00 21,0 19,0 4 2 SW - 10 -
12.07.2019 21:00:00 22,0 19,0 4 2 WSW - 10 -
12.07.2019 20:00:00 22,2 18,9 8 4 SW 1012,2 20 -
12.07.2019 19:00:00 23,0 19,0 13 7 SW - 10 -
12.07.2019 18:00:00 23,0 20,0 11 6 WSW - 10 -
12.07.2019 17:00:00 23,0 18,5 11 6 NNE 1013,2 6 0,0
12.07.2019 16:00:00 26,0 18,0 18 10 NE - 10 -
12.07.2019 15:00:00 26,0 18,0 15 8 ENE - 10 -
12.07.2019 14:00:00 26,8 19,0 16 9 NE 1012,4 30 -
12.07.2019 13:00:00 27,0 18,0 16 9 NE - 10 -
12.07.2019 12:00:00 27,0 17,0 13 7 ENE - 10 -
12.07.2019 11:00:00 26,6 13,5 13 7 NE 1012,8 10 0,0
12.07.2019 10:00:00 25,0 14,0 4 2 - - 10 -
12.07.2019 09:00:00 23,0 15,0 9 5 SW - 10 -
12.07.2019 08:00:00 21,3 15,4 11 6 SW 1012,9 30 -
12.07.2019 07:00:00 19,0 15,0 11 6 WSW - 10 -
12.07.2019 06:00:00 19,0 16,0 11 6 SW - 10 -
12.07.2019 05:00:00 18,6 16,4 4 2 SW 1013,5 30 0,0
12.07.2019 04:00:00 18,0 16,0 4 2 S - 10 -
12.07.2019 03:00:00 18,0 16,0 8 4 SSW - 10 -
12.07.2019 02:00:00 18,3 15,8 4 2 SSW 1012,8 25 -
12.07.2019 01:00:00 20,0 16,0 4 2 SSW - 10 -
12.07.2019 00:00:00 20,0 16,0 5 3 SW - 10 -
11.07.2019 23:00:00 20,7 15,9 4 2 SSW 1013,6 20 0,0
11.07.2019 22:00:00 22,0 14,0 2 1 - - 10 -
11.07.2019 21:00:00 24,0 13,0 4 2 SE - 10 -
11.07.2019 20:00:00 24,3 12,9 5 3 ESE 1013,2 30 -
11.07.2019 19:00:00 25,0 13,0 9 5 E - 10 -
11.07.2019 18:00:00 25,0 13,0 9 5 E - 10 -
11.07.2019 17:00:00 25,1 12,2 9 5 E 1013,8 30 0,0
11.07.2019 16:00:00 26,0 12,0 13 7 E - 10 -
11.07.2019 15:00:00 26,0 14,0 13 7 ENE - 10 -
11.07.2019 14:00:00 26,2 12,7 15 8 ENE 1014,1 75 -
11.07.2019 13:00:00 25,0 12,0 11 6 ENE - 10 -
11.07.2019 12:00:00 25,0 12,0 9 5 E - 10 -
11.07.2019 11:00:00 24,8 12,9 9 5 NNE 1015,2 10 0,0
11.07.2019 10:00:00 25,0 14,0 4 2 - - 10 -
11.07.2019 09:00:00 22,0 14,0 8 4 SSW - 10 -
11.07.2019 08:00:00 20,5 14,6 11 6 SSW 1014,9 75 -
11.07.2019 07:00:00 19,0 15,0 9 5 SSW - 10 -

tt = temperature
td = dewpoint
ff = wind speed
dd = wind direction
ppp = reduced air pressure
vv = visibility
rr = precipitation

Next stations